| time (UTC) | temp F | wind direction | speed MPH | gust MPH | rain 1hr in | rain 24hr in | rain mn in | humidity % | barometer mb |
| 20260502161420 | 55 | 202 | 3.0 | 7.0 | 0.00 | 0.00 | 0.00 | 40 | 1020.0 |
| 20260502160919 | 55 | 167 | 4.0 | 11.0 | 0.00 | 0.00 | 0.00 | 40 | 1020.0 |
| 20260502160417 | 55 | 225 | 4.0 | 9.0 | 0.00 | 0.00 | 0.00 | 40 | 1020.3 |
| 20260502151855 | 53 | 145 | 4.0 | 6.0 | 0.00 | 0.00 | 0.00 | 43 | 1020.7 |
| 20260502151351 | 53 | 229 | 4.0 | 6.0 | 0.00 | 0.00 | 0.00 | 44 | 1020.5 |
| 20260502150849 | 52 | 304 | 2.0 | 8.0 | 0.00 | 0.00 | 0.00 | 46 | 1020.7 |
| 20260502150345 | 53 | 238 | 6.0 | 8.0 | 0.00 | 0.00 | 0.00 | 43 | 1020.8 |
| 20260502130734 | 45 | 262 | 3.0 | 7.0 | 0.00 | 0.00 | 0.00 | 59 | 1021.3 |
| 20260502130231 | 44 | 207 | 2.0 | 3.0 | 0.00 | 0.00 | 0.00 | 61 | 1021.1 |
| 20260502123717 | 42 | 149 | 3.0 | 3.0 | 0.00 | 0.00 | 0.00 | 66 | 1021.1 |
| 20260502123214 | 42 | 221 | 2.0 | 3.0 | 0.00 | 0.00 | 0.00 | 66 | 1021.3 |
| 20260502122710 | 42 | 171 | 2.0 | 3.0 | 0.00 | 0.00 | 0.00 | 66 | 1021.1 |
| 20260502122207 | 42 | 225 | 1.0 | 2.0 | 0.00 | 0.00 | 0.00 | 66 | 1021.1 |
| 20260502121705 | 41 | 214 | 1.0 | 2.0 | 0.00 | 0.00 | 0.00 | 66 | 1021.1 |
| 20260502121203 | 41 | 213 | 1.0 | 2.0 | 0.00 | 0.00 | 0.00 | 67 | 1020.8 |
| 20260502120659 | 41 | 200 | 1.0 | 2.0 | 0.00 | 0.00 | 0.00 | 68 | 1021.1 |
| 20260502120156 | 40 | 211 | 1.0 | 2.0 | 0.00 | 0.00 | 0.00 | 67 | 1021.1 |
| 20260502115654 | 40 | 235 | 1.0 | 3.0 | 0.00 | 0.00 | 0.00 | 68 | 1021.1 |
| 20260502115149 | 40 | 208 | 2.0 | 3.0 | 0.00 | 0.00 | 0.00 | 68 | 1021.1 |
| 20260502114646 | 40 | 236 | 1.0 | 2.0 | 0.00 | 0.00 | 0.00 | 68 | 1021.1 |
| 20260502114143 | 39 | 228 | 2.0 | 2.0 | 0.00 | 0.00 | 0.00 | 69 | 1021.1 |
| 20260502113640 | 38 | 232 | 1.0 | 2.0 | 0.00 | 0.00 | 0.00 | 72 | 1021.0 |
| 20260502113133 | 37 | 251 | 1.0 | 1.0 | 0.00 | 0.00 | 0.00 | 75 | 1021.0 |
| 20260502112631 | 37 | 253 | 1.0 | 1.0 | 0.00 | 0.00 | 0.00 | 73 | 1020.8 |
| 20260502112128 | 37 | 231 | 0.0 | 1.0 | 0.00 | 0.00 | 0.00 | 74 | 1021.1 |
| 20260502111625 | 37 | 225 | 0.0 | 1.0 | 0.00 | 0.00 | 0.00 | 73 | 1020.9 |
| 20260502111123 | 38 | 224 | 0.0 | 0.0 | 0.00 | 0.00 | 0.00 | 72 | 1020.8 |
| 20260502110620 | 38 | 218 | 1.0 | 2.0 | 0.00 | 0.00 | 0.00 | 70 | 1021.0 |
| 20260502110117 | 38 | 230 | 0.0 | 1.0 | 0.00 | 0.00 | 0.00 | 70 | 1021.0 |
| 20260502105615 | 39 | 225 | 0.0 | 1.0 | 0.00 | 0.00 | 0.00 | 69 | 1020.8 |
| 20260502105112 | 39 | 233 | 1.0 | 1.0 | 0.00 | 0.00 | 0.00 | 68 | 1020.8 |
| 20260502104609 | 39 | 201 | 1.0 | 2.0 | 0.00 | 0.00 | 0.00 | 68 | 1020.8 |
| 20260502104106 | 39 | 201 | 0.0 | 1.0 | 0.00 | 0.00 | 0.00 | 68 | 1020.9 |
| 20260502103604 | 39 | 212 | 1.0 | 3.0 | 0.00 | 0.00 | 0.00 | 67 | 1021.0 |
| 20260502103102 | 39 | 227 | 1.0 | 1.0 | 0.00 | 0.00 | 0.00 | 67 | 1020.8 |
| 20260502102558 | 39 | 178 | 1.0 | 1.0 | 0.00 | 0.00 | 0.00 | 66 | 1020.8 |
| 20260502102055 | 40 | 201 | 1.0 | 2.0 | 0.00 | 0.00 | 0.00 | 65 | 1020.8 |
| 20260502101553 | 40 | 209 | 1.0 | 2.0 | 0.00 | 0.00 | 0.00 | 64 | 1020.6 |
| 20260502101051 | 40 | 206 | 4.0 | 5.0 | 0.00 | 0.00 | 0.00 | 64 | 1020.7 |
| 20260502100549 | 41 | 180 | 1.0 | 3.0 | 0.00 | 0.00 | 0.00 | 63 | 1020.9 |
| 20260502091524 | 42 | 225 | 5.0 | 7.0 | 0.00 | 0.00 | 0.00 | 60 | 1020.7 |
| 20260502091021 | 42 | 223 | 3.0 | 6.0 | 0.00 | 0.00 | 0.00 | 60 | 1020.6 |
| 20260502090518 | 42 | 195 | 2.0 | 3.0 | 0.00 | 0.00 | 0.00 | 60 | 1020.4 |
| 20260502071412 | 42 | 229 | 2.0 | 2.0 | 0.00 | 0.00 | 0.00 | 59 | 1021.0 |
| 20260502070911 | 42 | 174 | 1.0 | 2.0 | 0.00 | 0.00 | 0.00 | 59 | 1021.1 |
| 20260502070408 | 42 | 155 | 1.0 | 2.0 | 0.00 | 0.00 | 0.00 | 59 | 1021.1 |
| 20260502065907 | 42 | 216 | 0.0 | 2.0 | 0.00 | 0.00 | 0.00 | 59 | 1021.1 |
| 20260502065405 | 43 | 183 | 2.0 | 2.0 | 0.00 | 0.00 | 0.00 | 59 | 1021.0 |
| 20260502064903 | 42 | 219 | 1.0 | 3.0 | 0.00 | 0.00 | 0.00 | 59 | 1021.0 |
| 20260502064400 | 42 | 203 | 0.0 | 1.0 | 0.00 | 0.00 | 0.00 | 60 | 1021.2 |
| 20260502063857 | 42 | 202 | 0.0 | 1.0 | 0.00 | 0.00 | 0.00 | 60 | 1021.2 |
| 20260502063355 | 42 | 201 | 0.0 | 1.0 | 0.00 | 0.00 | 0.00 | 60 | 1021.2 |
| 20260502062852 | 42 | 193 | 1.0 | 2.0 | 0.00 | 0.00 | 0.00 | 60 | 1021.2 |
| 20260502062349 | 42 | 219 | 1.0 | 5.0 | 0.00 | 0.00 | 0.00 | 59 | 1021.1 |
| 20260502061848 | 42 | 210 | 1.0 | 2.0 | 0.00 | 0.00 | 0.00 | 58 | 1021.1 |
| 20260502061345 | 42 | 216 | 0.0 | 2.0 | 0.00 | 0.00 | 0.00 | 58 | 1021.2 |
| 20260502060841 | 42 | 183 | 0.0 | 1.0 | 0.00 | 0.00 | 0.00 | 59 | 1021.0 |
| 20260502060336 | 42 | 197 | 1.0 | 3.0 | 0.00 | 0.00 | 0.00 | 58 | 1021.1 |
| 20260502055834 | 42 | 220 | 0.0 | 1.0 | 0.00 | 0.00 | 0.00 | 58 | 1021.2 |
| 20260502055332 | 42 | 219 | 0.0 | 2.0 | 0.00 | 0.00 | 0.00 | 57 | 1021.1 |
| 20260502054831 | 43 | 233 | 1.0 | 1.0 | 0.00 | 0.00 | 0.00 | 57 | 1021.1 |
| 20260502054328 | 42 | 230 | 1.0 | 2.0 | 0.00 | 0.00 | 0.00 | 56 | 1021.2 |
| 20260502053826 | 43 | 223 | 0.0 | 1.0 | 0.00 | 0.00 | 0.00 | 56 | 1021.3 |
| 20260502053323 | 43 | 218 | 1.0 | 2.0 | 0.00 | 0.00 | 0.00 | 56 | 1021.3 |
| 20260502052820 | 43 | 233 | 1.0 | 1.0 | 0.00 | 0.00 | 0.00 | 55 | 1021.1 |
| 20260502052318 | 43 | 177 | 1.0 | 1.0 | 0.00 | 0.00 | 0.00 | 55 | 1021.0 |
| 20260502051816 | 43 | 197 | 1.0 | 1.0 | 0.00 | 0.00 | 0.00 | 55 | 1021.2 |
| 20260502051315 | 42 | 240 | 0.0 | 1.0 | 0.00 | 0.00 | 0.00 | 55 | 1021.3 |
| 20260502050810 | 42 | 213 | 0.0 | 1.0 | 0.00 | 0.00 | 0.00 | 55 | 1021.1 |
| 20260502050307 | 42 | 221 | 0.0 | 1.0 | 0.00 | 0.00 | 0.00 | 55 | 1021.1 |
| 20260502045804 | 42 | 230 | 0.0 | 0.0 | 0.00 | 0.00 | 0.00 | 55 | 1021.2 |
| 20260502045300 | 42 | 223 | 0.0 | 1.0 | 0.00 | 0.00 | 0.00 | 54 | 1021.1 |
| 20260502044758 | 42 | 228 | 1.0 | 1.0 | 0.00 | 0.00 | 0.00 | 53 | 1021.0 |
| 20260502044254 | 42 | 233 | 0.0 | 1.0 | 0.00 | 0.00 | 0.00 | 52 | 1021.0 |
| 20260502043751 | 42 | 229 | 0.0 | 0.0 | 0.00 | 0.00 | 0.00 | 52 | 1020.9 |
| 20260502043249 | 43 | 233 | 0.0 | 1.0 | 0.00 | 0.00 | 0.00 | 51 | 1021.0 |
| 20260502042748 | 43 | 228 | 1.0 | 1.0 | 0.00 | 0.00 | 0.00 | 51 | 1021.2 |
| 20260502042245 | 42 | 243 | 0.0 | 0.0 | 0.00 | 0.00 | 0.00 | 51 | 1021.1 |
| 20260502041743 | 43 | 236 | 0.0 | 0.0 | 0.00 | 0.00 | 0.00 | 51 | 1021.0 |
| 20260502041240 | 43 | 237 | 0.0 | 0.0 | 0.00 | 0.00 | 0.00 | 50 | 1021.1 |
| 20260502040737 | 43 | 241 | 0.0 | 0.0 | 0.00 | 0.00 | 0.00 | 50 | 1021.0 |
| 20260502040234 | 43 | 242 | 0.0 | 0.0 | 0.00 | 0.00 | 0.00 | 49 | 1021.0 |
| 20260502035730 | 43 | 230 | 0.0 | 0.0 | 0.00 | 0.00 | 0.00 | 50 | 1021.3 |
| 20260502035227 | 43 | 202 | 1.0 | 1.0 | 0.00 | 0.00 | 0.00 | 49 | 1021.1 |
| 20260502034724 | 42 | 199 | 0.0 | 2.0 | 0.00 | 0.00 | 0.00 | 51 | 1021.2 |
| 20260502034222 | 42 | 284 | 0.0 | 0.0 | 0.00 | 0.00 | 0.00 | 50 | 1021.1 |
| 20260502033720 | 43 | 284 | 0.0 | 0.0 | 0.00 | 0.00 | 0.00 | 49 | 1021.2 |
| 20260502033218 | 42 | 284 | 0.0 | 0.0 | 0.00 | 0.00 | 0.00 | 51 | 1021.2 |
| 20260502032714 | 42 | 284 | 0.0 | 0.0 | 0.00 | 0.00 | 0.00 | 51 | 1021.1 |
| 20260502032210 | 42 | 284 | 0.0 | 0.0 | 0.00 | 0.00 | 0.00 | 51 | 1021.1 |
| 20260502031708 | 42 | 284 | 0.0 | 0.0 | 0.00 | 0.00 | 0.00 | 53 | 1021.1 |
| 20260502031206 | 43 | 284 | 0.0 | 0.0 | 0.00 | 0.00 | 0.00 | 52 | 1021.2 |
| 20260502030705 | 43 | 284 | 0.0 | 0.0 | 0.00 | 0.00 | 0.00 | 54 | 1021.2 |
| 20260502030202 | 44 | 285 | 0.0 | 0.0 | 0.00 | 0.00 | 0.00 | 55 | 1021.1 |
| 20260502025659 | 44 | 284 | 0.0 | 0.0 | 0.00 | 0.00 | 0.00 | 47 | 1021.1 |
| 20260502025157 | 44 | 284 | 0.0 | 0.0 | 0.00 | 0.00 | 0.00 | 48 | 1021.2 |
| 20260502024654 | 44 | 284 | 0.0 | 0.0 | 0.00 | 0.00 | 0.00 | 47 | 1021.2 |
| 20260502024153 | 44 | 284 | 0.0 | 0.0 | 0.00 | 0.00 | 0.00 | 50 | 1021.1 |
| 20260502023650 | 44 | 284 | 0.0 | 0.0 | 0.00 | 0.00 | 0.00 | 48 | 1021.0 |
| 20260502023147 | 44 | 284 | 0.0 | 0.0 | 0.00 | 0.00 | 0.00 | 47 | 1021.1 |
| 20260502022644 | 44 | 284 | 0.0 | 0.0 | 0.00 | 0.00 | 0.00 | 49 | 1021.0 |
| 20260502022141 | 44 | 284 | 0.0 | 0.0 | 0.00 | 0.00 | 0.00 | 48 | 1020.9 |
| 20260502021639 | 44 | 284 | 0.0 | 0.0 | 0.00 | 0.00 | 0.00 | 50 | 1021.1 |
| 20260502021135 | 44 | 284 | 0.0 | 0.0 | 0.00 | 0.00 | 0.00 | 49 | 1020.9 |
| 20260502020633 | 45 | 284 | 0.0 | 0.0 | 0.00 | 0.00 | 0.00 | 48 | 1021.0 |
| 20260502020129 | 45 | 284 | 0.0 | 0.0 | 0.00 | 0.00 | 0.00 | 48 | 1021.1 |
| 20260502015628 | 45 | 284 | 0.0 | 0.0 | 0.00 | 0.00 | 0.00 | 44 | 1020.9 |
| 20260502015123 | 45 | 284 | 0.0 | 0.0 | 0.00 | 0.00 | 0.00 | 46 | 1020.9 |
| 20260502014621 | 45 | 284 | 0.0 | 0.0 | 0.00 | 0.00 | 0.00 | 46 | 1020.6 |
| 20260502014118 | 46 | 268 | 0.0 | 0.0 | 0.00 | 0.00 | 0.00 | 48 | 1020.7 |
| 20260502013614 | 46 | 267 | 0.0 | 0.0 | 0.00 | 0.00 | 0.00 | 45 | 1020.6 |
| 20260502013109 | 46 | 267 | 0.0 | 0.0 | 0.00 | 0.00 | 0.00 | 45 | 1020.7 |
| 20260502012608 | 47 | 267 | 0.0 | 0.0 | 0.00 | 0.00 | 0.00 | 43 | 1020.5 |
| 20260502012106 | 48 | 267 | 0.0 | 0.0 | 0.00 | 0.00 | 0.00 | 40 | 1020.6 |
| 20260502011602 | 48 | 280 | 0.0 | 0.0 | 0.00 | 0.00 | 0.00 | 40 | 1020.6 |
| 20260502011057 | 49 | 253 | 0.0 | 1.0 | 0.00 | 0.00 | 0.00 | 39 | 1020.5 |
| 20260502010555 | 50 | 232 | 0.0 | 1.0 | 0.00 | 0.00 | 0.00 | 38 | 1020.7 |
| 20260502010051 | 50 | 214 | 1.0 | 2.0 | 0.00 | 0.00 | 0.00 | 38 | 1020.7 |
| 20260502005549 | 50 | 260 | 0.0 | 1.0 | 0.00 | 0.00 | 0.00 | 39 | 1020.6 |
| 20260502005047 | 50 | 296 | 0.0 | 1.0 | 0.00 | 0.00 | 0.00 | 38 | 1020.5 |
| 20260502004542 | 51 | 276 | 0.0 | 1.0 | 0.00 | 0.00 | 0.00 | 37 | 1020.5 |
| 20260502004039 | 51 | 242 | 0.0 | 1.0 | 0.00 | 0.00 | 0.00 | 36 | 1020.4 |
| 20260502003537 | 51 | 255 | 1.0 | 2.0 | 0.00 | 0.00 | 0.00 | 35 | 1020.5 |
| 20260502003034 | 51 | 219 | 1.0 | 1.0 | 0.00 | 0.00 | 0.00 | 36 | 1020.5 |
| 20260502002530 | 52 | 245 | 1.0 | 3.0 | 0.00 | 0.00 | 0.00 | 34 | 1020.4 |
| 20260502002027 | 53 | 224 | 0.0 | 2.0 | 0.00 | 0.00 | 0.00 | 34 | 1020.4 |
| 20260502001525 | 52 | 260 | 1.0 | 6.0 | 0.00 | 0.00 | 0.00 | 34 | 1020.2 |
| 20260502001022 | 52 | 297 | 5.0 | 6.0 | 0.00 | 0.00 | 0.00 | 34 | 1020.4 |
| 20260502000521 | 52 | 303 | 3.0 | 3.0 | 0.00 | 0.00 | 0.00 | 34 | 1020.4 |
| 20260502000017 | 52 | 269 | 2.0 | 3.0 | 0.00 | 0.00 | 0.00 | 34 | 1020.3 |
| 20260501235513 | 52 | 34 | 2.0 | 5.0 | 0.00 | 0.00 | 0.00 | 34 | 1020.4 |
| 20260501235009 | 52 | 325 | 4.0 | 6.0 | 0.00 | 0.00 | 0.00 | 35 | 1020.5 |
| 20260501234504 | 53 | 267 | 4.0 | 5.0 | 0.00 | 0.00 | 0.00 | 34 | 1020.4 |
| 20260501234003 | 53 | 250 | 3.0 | 5.0 | 0.00 | 0.00 | 0.00 | 35 | 1020.3 |
| 20260501233501 | 53 | 260 | 3.0 | 7.0 | 0.00 | 0.00 | 0.00 | 35 | 1020.3 |
| 20260501232956 | 52 | 270 | 1.0 | 5.0 | 0.00 | 0.00 | 0.00 | 35 | 1020.5 |
| 20260501232453 | 52 | 305 | 3.0 | 6.0 | 0.00 | 0.00 | 0.00 | 35 | 1020.5 |
| 20260501231950 | 53 | 326 | 6.0 | 7.0 | 0.00 | 0.00 | 0.00 | 34 | 1020.5 |
| 20260501231449 | 52 | 11 | 3.0 | 3.0 | 0.00 | 0.00 | 0.00 | 35 | 1020.4 |
| 20260501230947 | 52 | 306 | 2.0 | 5.0 | 0.00 | 0.00 | 0.00 | 34 | 1020.5 |
| 20260501230446 | 53 | 269 | 6.0 | 7.0 | 0.00 | 0.00 | 0.00 | 34 | 1020.5 |
| 20260501225943 | 52 | 285 | 5.0 | 7.0 | 0.00 | 0.00 | 0.00 | 34 | 1020.3 |
| 20260501225440 | 52 | 232 | 3.0 | 5.0 | 0.00 | 0.00 | 0.00 | 35 | 1020.4 |
| 20260501224936 | 52 | 173 | 5.0 | 9.0 | 0.00 | 0.00 | 0.00 | 35 | 1020.4 |
| 20260501224433 | 53 | 279 | 3.0 | 6.0 | 0.00 | 0.00 | 0.00 | 33 | 1020.4 |
| 20260501223930 | 53 | 241 | 4.0 | 6.0 | 0.00 | 0.00 | 0.00 | 34 | 1020.6 |
| 20260501223426 | 52 | 349 | 3.0 | 5.0 | 0.00 | 0.00 | 0.00 | 35 | 1020.4 |
| 20260501222922 | 52 | 316 | 4.0 | 6.0 | 0.00 | 0.00 | 0.00 | 34 | 1020.5 |
| 20260501222420 | 52 | 324 | 1.0 | 2.0 | 0.00 | 0.00 | 0.00 | 38 | 1020.4 |
| 20260501221916 | 52 | 221 | 1.0 | 6.0 | 0.00 | 0.00 | 0.00 | 37 | 1020.3 |
| 20260501221413 | 53 | 199 | 3.0 | 7.0 | 0.00 | 0.00 | 0.00 | 34 | 1020.5 |
| 20260501220911 | 53 | 229 | 2.0 | 7.0 | 0.00 | 0.00 | 0.00 | 34 | 1020.6 |
| 20260501220408 | 53 | 291 | 3.0 | 3.0 | 0.00 | 0.00 | 0.00 | 35 | 1020.4 |
| 20260501215904 | 53 | 273 | 3.0 | 5.0 | 0.00 | 0.00 | 0.00 | 35 | 1020.6 |
| 20260501215401 | 53 | 343 | 5.0 | 9.0 | 0.00 | 0.00 | 0.00 | 35 | 1020.5 |
| 20260501214856 | 53 | 67 | 0.0 | 3.0 | 0.00 | 0.00 | 0.00 | 38 | 1020.4 |
| 20260501214352 | 53 | 157 | 0.0 | 2.0 | 0.00 | 0.00 | 0.00 | 36 | 1020.6 |
| 20260501213848 | 54 | 122 | 1.0 | 5.0 | 0.00 | 0.00 | 0.00 | 35 | 1020.6 |
| 20260501213345 | 54 | 280 | 5.0 | 8.0 | 0.00 | 0.00 | 0.00 | 36 | 1020.6 |
| 20260501212840 | 55 | 214 | 5.0 | 10.0 | 0.00 | 0.00 | 0.00 | 35 | 1020.7 |
| 20260501212337 | 53 | 172 | 0.0 | 5.0 | 0.00 | 0.00 | 0.00 | 39 | 1020.5 |
| 20260501211834 | 54 | 260 | 4.0 | 5.0 | 0.00 | 0.00 | 0.00 | 35 | 1020.4 |
| 20260501211331 | 53 | 233 | 1.0 | 6.0 | 0.00 | 0.00 | 0.00 | 37 | 1020.7 |
| 20260501210828 | 53 | 301 | 2.0 | 5.0 | 0.00 | 0.00 | 0.00 | 38 | 1020.7 |
| 20260501210325 | 53 | 237 | 2.0 | 3.0 | 0.00 | 0.00 | 0.00 | 36 | 1020.5 |
| 20260501205816 | 54 | 280 | 4.0 | 9.0 | 0.00 | 0.00 | 0.00 | 36 | 1020.9 |
| 20260501205313 | 52 | 175 | 1.0 | 13.0 | 0.00 | 0.00 | 0.00 | 36 | 1020.7 |
| 20260501204810 | 51 | 218 | 2.0 | 7.0 | 0.00 | 0.00 | 0.00 | 40 | 1020.9 |
| 20260501204307 | 51 | 297 | 3.0 | 7.0 | 0.00 | 0.00 | 0.00 | 37 | 1020.9 |
| 20260501203803 | 51 | 21 | 4.0 | 6.0 | 0.00 | 0.00 | 0.00 | 38 | 1021.0 |
| 20260501203300 | 52 | 332 | 3.0 | 7.0 | 0.00 | 0.00 | 0.00 | 36 | 1020.7 |
| 20260501202757 | 52 | 8 | 3.0 | 6.0 | 0.00 | 0.00 | 0.00 | 37 | 1020.9 |
| 20260501202254 | 52 | 292 | 1.0 | 3.0 | 0.00 | 0.00 | 0.00 | 38 | 1021.0 |
| 20260501201751 | 51 | 262 | 7.0 | 7.0 | 0.00 | 0.00 | 0.00 | 38 | 1020.7 |
| 20260501201247 | 52 | 319 | 5.0 | 7.0 | 0.00 | 0.00 | 0.00 | 38 | 1020.7 |
| 20260501200744 | 51 | 31 | 3.0 | 7.0 | 0.00 | 0.00 | 0.00 | 39 | 1020.9 |
| 20260501200241 | 51 | 99 | 0.0 | 3.0 | 0.00 | 0.00 | 0.00 | 39 | 1021.1 |
| 20260501195739 | 51 | 224 | 1.0 | 2.0 | 0.00 | 0.00 | 0.00 | 37 | 1021.0 |
| 20260501195234 | 50 | 256 | 2.0 | 5.0 | 0.00 | 0.00 | 0.00 | 37 | 1021.2 |
| 20260501194731 | 52 | 255 | 1.0 | 9.0 | 0.00 | 0.00 | 0.00 | 36 | 1021.0 |
| 20260501194227 | 50 | 273 | 5.0 | 9.0 | 0.00 | 0.00 | 0.00 | 37 | 1021.2 |
| 20260501193723 | 51 | 332 | 5.0 | 8.0 | 0.00 | 0.00 | 0.00 | 37 | 1021.0 |
| 20260501193222 | 52 | 251 | 5.0 | 7.0 | 0.00 | 0.00 | 0.00 | 36 | 1020.9 |
| 20260501192719 | 52 | 223 | 5.0 | 8.0 | 0.00 | 0.00 | 0.00 | 36 | 1021.2 |
| 20260501192216 | 51 | 333 | 3.0 | 6.0 | 0.00 | 0.00 | 0.00 | 36 | 1021.0 |
| 20260501191713 | 51 | 228 | 1.0 | 3.0 | 0.00 | 0.00 | 0.00 | 37 | 1021.0 |
| 20260501191210 | 51 | 283 | 2.0 | 5.0 | 0.00 | 0.00 | 0.00 | 40 | 1021.0 |
| 20260501190707 | 51 | 286 | 3.0 | 5.0 | 0.00 | 0.00 | 0.00 | 37 | 1021.0 |
| 20260501190202 | 50 | 275 | 3.0 | 5.0 | 0.00 | 0.00 | 0.00 | 39 | 1021.1 |
| 20260501185658 | 50 | 161 | 2.0 | 3.0 | 0.00 | 0.00 | 0.00 | 38 | 1021.1 |
| 20260501185154 | 50 | 158 | 1.0 | 3.0 | 0.00 | 0.00 | 0.00 | 39 | 1021.0 |
| 20260501184650 | 49 | 257 | 2.0 | 7.0 | 0.00 | 0.00 | 0.00 | 40 | 1021.3 |
| 20260501184145 | 49 | 284 | 5.0 | 9.0 | 0.00 | 0.00 | 0.00 | 39 | 1021.2 |
| 20260501183642 | 50 | 254 | 2.0 | 7.0 | 0.00 | 0.00 | 0.00 | 40 | 1021.1 |
| 20260501183138 | 49 | 279 | 3.0 | 6.0 | 0.00 | 0.00 | 0.00 | 39 | 1021.1 |
| 20260501182635 | 49 | 331 | 5.0 | 9.0 | 0.00 | 0.00 | 0.00 | 39 | 1021.1 |
| 20260501182131 | 50 | 61 | 3.0 | 9.0 | 0.00 | 0.00 | 0.00 | 39 | 1021.3 |
| 20260501181629 | 50 | 262 | 5.0 | 11.0 | 0.00 | 0.00 | 0.00 | 39 | 1021.2 |
| 20260501181125 | 49 | 8 | 2.0 | 7.0 | 0.00 | 0.00 | 0.00 | 41 | 1021.2 |
| 20260501180624 | 50 | 296 | 5.0 | 9.0 | 0.00 | 0.00 | 0.00 | 39 | 1021.4 |
| 20260501180120 | 51 | 320 | 1.0 | 6.0 | 0.00 | 0.00 | 0.00 | 39 | 1021.3 |
| 20260501175617 | 48 | 150 | 2.0 | 5.0 | 0.00 | 0.00 | 0.00 | 41 | 1021.3 |
| 20260501175114 | 50 | 219 | 4.0 | 8.0 | 0.00 | 0.00 | 0.00 | 40 | 1021.3 |
| 20260501174610 | 49 | 269 | 7.0 | 10.0 | 0.00 | 0.00 | 0.00 | 40 | 1021.2 |
| 20260501174108 | 50 | 225 | 3.0 | 5.0 | 0.00 | 0.00 | 0.00 | 38 | 1021.5 |
| 20260501173605 | 49 | 191 | 2.0 | 7.0 | 0.00 | 0.00 | 0.00 | 38 | 1021.6 |
| 20260501173102 | 49 | 268 | 3.0 | 8.0 | 0.00 | 0.00 | 0.00 | 38 | 1021.5 |
| 20260501172557 | 48 | 250 | 3.0 | 8.0 | 0.00 | 0.00 | 0.00 | 39 | 1021.5 |
| 20260501172053 | 48 | 332 | 6.0 | 8.0 | 0.00 | 0.00 | 0.00 | 38 | 1021.6 |
| 20260501171549 | 48 | 101 | 0.0 | 11.0 | 0.00 | 0.00 | 0.00 | 42 | 1021.6 |
| 20260501171046 | 48 | 232 | 2.0 | 7.0 | 0.00 | 0.00 | 0.00 | 40 | 1021.6 |
| 20260501170543 | 48 | 297 | 4.0 | 5.0 | 0.00 | 0.00 | 0.00 | 40 | 1021.5 |
| 20260501170040 | 48 | 338 | 5.0 | 9.0 | 0.00 | 0.00 | 0.00 | 40 | 1021.6 |
| 20260501165538 | 47 | 234 | 4.0 | 7.0 | 0.00 | 0.00 | 0.00 | 41 | 1021.5 |
| 20260501165035 | 48 | 228 | 2.0 | 8.0 | 0.00 | 0.00 | 0.00 | 42 | 1021.4 |
| 20260501164533 | 48 | 333 | 6.0 | 13.0 | 0.00 | 0.00 | 0.00 | 41 | 1021.5 |
| 20260501164029 | 48 | 321 | 2.0 | 8.0 | 0.00 | 0.00 | 0.00 | 41 | 1021.6 |
| 20260501163526 | 47 | 28 | 0.0 | 10.0 | 0.00 | 0.00 | 0.00 | 44 | 1021.6 |
| 20260501163022 | 47 | 89 | 2.0 | 5.0 | 0.00 | 0.00 | 0.00 | 42 | 1021.5 |
| 20260501162519 | 47 | 301 | 7.0 | 11.0 | 0.00 | 0.00 | 0.00 | 41 | 1021.6 |
| 20260501162016 | 47 | 147 | 6.0 | 11.0 | 0.00 | 0.00 | 0.00 | 42 | 1021.6 |